Trenton, NJ

1:52 PM EDT on June 27, 2017 (GMT -0400)
Trenton Mercer

Weather History for KTTN - May, 2013

Change the Weather History Date:

Saturday, May 25, 2013

  Actual Average Record
Temperature  
Mean Temperature 53 °F 64 °F  
Max Temperature 61 °F 75 °F 93 °F (1880)
Min Temperature 44 °F 53 °F 40 °F (1956)
Degree Days  
Heating Degree Days 12 3  
Month to date heating degree days 153 151  
Since 1 July heating degree days 4927 5119  
Cooling Degree Days 0 2  
Month to date cooling degree days 38 33  
Year to date cooling degree days 52 41  
Growing Degree Days 2 (Base 50)    
Moisture  
Dew Point 36 °F    
Average Humidity 63    
Maximum Humidity 89    
Minimum Humidity 36    
Precipitation  
Precipitation 0.04 in 0.19 in 2.02 in (1952)
Month to date precipitation 3.06 3.28  
Year to date precipitation 12.54 16.43  
Sea Level Pressure  
Sea Level Pressure 29.97 in    
Wind  
Wind Speed 11 mph (NNW)    
Max Wind Speed 24 mph    
Max Gust Speed 37 mph    
Visibility 10 miles    
Events Rain    
T = Trace of Precipitation, MM = Missing Value Source: NWS Daily Summary

Daily Weather History Graph

Daily Weather History Graph

Search for Another Location

Airport or City:

Trip Planner

Search our weather history database for the weather conditions in past years. The results will help you decide how hot, cold, wet, or windy it might be!

Date:

Astronomy

May. 25, 2013 Rise Set
Actual Time 5:35 AM EDT 8:17 PM EDT
Civil Twilight 5:03 AM EDT 8:49 PM EDT
Nautical Twilight 4:23 AM EDT 9:29 PM EDT
Astronomical Twilight 3:38 AM EDT 10:14 PM EDT
Moon 9:03 PM EDT (5/25) 5:59 AM EDT (5/25)
Length of Visible Light 15h 46m
Length of Day
14h 42m
Full, 100% of the Moon is Illuminated
May 25
Full
May 31
Last Quarter
Jun 8
New
Jun 16
First Quarter
Jun 23
Full

Hourly Weather History & Observations

Time (EDT) Temp. Windchill Dew Point Humidity Pressure Visibility Wind Dir Wind Speed Gust Speed Precip Events Conditions
12:53 AM 44.1 °F 40.8 °F 41.0 °F 89% 29.98 in 10.0 mi North 5.8 mph - 0.03 in Rain Light Rain
1:53 AM 45.0 °F 40.6 °F 41.0 °F 86% 29.96 in 9.0 mi NNW 8.1 mph - 0.00 in Rain Light Rain
2:53 AM 44.1 °F 40.8 °F 41.0 °F 89% 29.95 in 10.0 mi NNW 5.8 mph - 0.01 in   Overcast
3:53 AM 45.0 °F 41.2 °F 41.0 °F 86% 29.95 in 10.0 mi NNW 6.9 mph - 0.00 in Rain Light Rain
4:53 AM 45.0 °F 39.7 °F 39.9 °F 82% 29.95 in 10.0 mi NNW 10.4 mph - 0.01 in Rain Light Rain
5:53 AM 45.0 °F 38.5 °F 39.0 °F 80% 29.94 in 10.0 mi NNW 13.8 mph 21.9 mph 0.01 in Rain Light Rain
6:53 AM 46.0 °F 40.6 °F 39.9 °F 79% 29.96 in 10.0 mi NNW 11.5 mph 18.4 mph 0.01 in Rain Light Rain
7:53 AM 48.0 °F - 39.9 °F 74% 29.95 in 10.0 mi NNW 9.2 mph - 0.00 in   Overcast
8:53 AM 50.0 °F - 39.0 °F 66% 29.97 in 10.0 mi NNW 9.2 mph - N/A   Overcast
9:53 AM 51.1 °F - 37.9 °F 61% 29.96 in 10.0 mi North 11.5 mph 25.3 mph N/A   Overcast
10:53 AM 55.0 °F - 37.0 °F 51% 29.96 in 10.0 mi NNW 19.6 mph 32.2 mph N/A   Mostly Cloudy
11:53 AM 55.9 °F - 37.0 °F 49% 29.96 in 10.0 mi North 13.8 mph 27.6 mph N/A   Overcast
12:53 PM 55.9 °F - 36.0 °F 47% 29.96 in 10.0 mi North 18.4 mph 26.5 mph N/A   Overcast
1:53 PM 57.0 °F - 36.0 °F 45% 29.95 in 10.0 mi North 15.0 mph 27.6 mph N/A   Overcast
2:53 PM 57.9 °F - 36.0 °F 44% 29.96 in 10.0 mi NNW 13.8 mph 32.2 mph 0.00 in Rain Light Rain
3:53 PM 57.9 °F - 35.1 °F 42% 29.96 in 10.0 mi NNW 13.8 mph 26.5 mph 0.00 in   Overcast
4:53 PM 60.1 °F - 34.0 °F 38% 29.95 in 10.0 mi North 15.0 mph 33.4 mph N/A   Mostly Cloudy
5:53 PM 59.0 °F - 33.1 °F 38% 29.96 in 10.0 mi North 13.8 mph 24.2 mph N/A   Mostly Cloudy
6:53 PM 57.0 °F - 30.9 °F 37% 29.99 in 10.0 mi North 13.8 mph 27.6 mph N/A   Overcast
7:53 PM 55.9 °F - 32.0 °F 40% 30.01 in 10.0 mi North 6.9 mph - N/A   Overcast
8:53 PM 55.0 °F - 32.0 °F 42% 30.02 in 10.0 mi North 9.2 mph - N/A   Overcast
9:53 PM 55.0 °F - 30.9 °F 40% 30.03 in 10.0 mi NNW 9.2 mph 18.4 mph N/A   Clear
10:53 PM 53.1 °F - 30.9 °F 43% 30.03 in 10.0 mi NW 8.1 mph - N/A   Clear
11:53 PM 52.0 °F - 32.0 °F 47% 30.02 in 10.0 mi NW 8.1 mph - N/A   Clear